Location: Antioch Baptist Church
(32.6696°N, 85.7327°W)
Time: 12:17:20
(UTC+00:00)

Resurs 1-4 Rocket - Pass Details

Date: 14 July 2020
Orbit: 800 x 814 km, 98.6° (Epoch: 08 August)

Event Time Altitude Azimuth Distance (km) Brightness Sun altitude
Rises 06:29:57 0° 25° (NNE) 3,336 6.3 -34.9°
Reaches altitude 10° 06:32:33 10° 35° (NE) 2,398 5.2 -34.7°
Enters shadow 06:35:34 26° 64° (ENE) 1,537 3.8 -34.6°
